STARLINK-3543

Satellite information

Favourite Embed

Satellite Type and Status

PAYLOADIN ORBIT

Key statistics

Satellite STARLINK-3543 at a glance.

Uptime

1306

Days in orbit

Revolutions

≈ 15.1

Per day

Orbit

LEO

Low Earth Orbit

Inclination

53.2

Latest

Satellite identification and parameters

Extended collection of information and parameters for STARLINK-3543.

Object identification

Identified? True

Debris? False

Object name: STARLINK-3543

International designator: 2022-016C

Object number (NORAD): 51716

Object ID (CCSDS): 51716

Country: UNITED STATES OF AMERICA (US)

Current information (Y/N): Y

RCS size: LARGE

Orbital parameters

Period: 95.438 minutes

Inclination: 53.2195 deg

SMA: 6917.9 km

Apoapsis: 540.698 km

Periapsis: 538.831 km

RAAN: 26.1898 deg

Eccentricy: 0.00013498

Argument of periapsis: 94.8538 deg

Mean anomaly: 265.2608 deg

Mean motion: 15.08833698 rev/day

Mean motion (dot): 0.00000213 rev/day2

B* drag term: 0.000031447423 1/REarth

Two-line elements (TLE)

Creation date: Sept. 18, 2025, 3:57 a.m.

Reference frame: TEME

Reference center: EARTH

Epoch: Sept. 17, 2025, 2:11 p.m. UTC

TLE line 0: 0 STARLINK-3543

TLE line 1: 1 51716U 22016C 25260.59166420 .00000213 00000-0 31447-4 0 9998

TLE line 2: 2 51716 53.2195 26.1898 0001350 94.8538 265.2608 15.08833698197295

Live tracking on map

Real-time ground track for satellite STARLINK-3543.

In-orbit conjunctions

There are no conjunctions computed for STARLINK-3543, at the moment. Check back to stay up to date, as we update our databases every day.

Go to all conjunctions

Associated space launch

A batch of 46 satellites for Starlink mega-constellation - SpaceX's project for space-based Internet communication system.

STARLINK-3543 was lifted into orbit during the mission ‘Falcon 9 Block 5 | Starlink Group 4-8’, on board a Falcon 9 space rocket.

The launch took place on Feb. 21, 2022, 2:44 p.m. from Space Launch Complex 40.

For more information about the launch, click the button.

Launch to space Falcon 9 Block 5 | Starlink Group 4-8
Falcon 9 Block 5 | Starlink Group 4-8

Agency: N/A

Status: Launch Successful

Launch date: Feb. 21, 2022, 2:44 p.m. UTC

Rocket: Falcon 9

Launch pad: Space Launch Complex 40

Location: Cape Canaveral SFS, FL, USA

...

Latest news about this satellite

News about space launch
SpaceX adds 46 more satellites to Starlink fleet

SpaceX launched a Falcon 9 rocket Monday from Cape Canaveral with 46 more satellites for the company’s Starlink broadband network, deploying the internet relay payloads in a higher orbit than recent flights after atmospheric drag brought down more nearly ...

News about space launch
SpaceX Falcon 9 booster aces eleventh launch and landing for the second time

For the second time, a SpaceX Falcon 9 booster has completed its eleventh launch, spaceflight, and landing – helping deliver dozens of...

News about space launch
SpaceX launches Starlink satellites to higher orbit

SpaceX launched a set of Starlink satellites Feb. 21 after more than three-fourths of the satellites from the previous launch were lost because of a solar storm.


Newsletter sign-up

Weekly statistics, charts and insights to help you stay on top of the space industry.